Time,TemperatureF,DewpointF,PressureIn,WindDirection,WindDirectionDegrees,WindSpeedMPH,WindSpeedGustMPH,Humidity,HourlyPrecipIn,Conditions,Clouds,dailyrainin,SoftwareType,DateUTC
2013-03-16 00:00:00,21.9,21.0,29.26,ESE,112,2.0,2.0,88,0.00,,,0.00,Rainwise IP-100,2013-03-16 04:00:00,
2013-03-16 00:01:00,21.9,21.0,29.26,ESE,112,1.0,2.0,88,0.00,,,0.00,Rainwise IP-100,2013-03-16 04:01:00,
2013-03-16 00:06:00,21.7,21.0,29.26,ESE,112,1.0,2.0,89,0.00,,,0.00,Rainwise IP-100,2013-03-16 04:06:00,
2013-03-16 00:11:00,21.6,21.0,29.26,ESE,112,2.0,2.0,90,0.00,,,0.00,Rainwise IP-100,2013-03-16 04:11:00,
2013-03-16 00:16:00,21.5,21.0,29.26,ESE,112,2.0,2.0,91,0.00,,,0.00,Rainwise IP-100,2013-03-16 04:16:00,
2013-03-16 00:21:00,21.8,21.0,29.26,ESE,112,2.0,2.0,89,0.00,,,0.00,Rainwise IP-100,2013-03-16 04:21:00,
2013-03-16 00:26:00,21.9,21.0,29.26,ESE,112,1.0,2.0,90,0.00,,,0.00,Rainwise IP-100,2013-03-16 04:26:00,
2013-03-16 00:31:00,21.9,21.0,29.26,ESE,112,1.0,2.0,90,0.00,,,0.00,Rainwise IP-100,2013-03-16 04:31:00,
2013-03-16 00:36:00,22.1,21.0,29.26,ESE,112,1.0,2.0,91,0.00,,,0.00,Rainwise IP-100,2013-03-16 04:36:00,
2013-03-16 00:41:00,22.4,21.0,29.26,ESE,112,2.0,2.0,90,0.00,,,0.00,Rainwise IP-100,2013-03-16 04:41:00,
2013-03-16 00:46:00,22.5,21.0,29.26,ESE,112,1.0,2.0,91,0.00,,,0.00,Rainwise IP-100,2013-03-16 04:46:00,
2013-03-16 00:51:00,22.6,21.0,29.26,ESE,112,2.0,2.0,92,0.00,,,0.00,Rainwise IP-100,2013-03-16 04:51:00,
2013-03-16 00:56:00,22.8,21.0,29.26,ESE,112,2.0,2.0,90,0.00,,,0.00,Rainwise IP-100,2013-03-16 04:56:00,
2013-03-16 01:01:00,23.1,21.0,29.26,East,90,1.0,4.0,90,0.00,,,0.00,Rainwise IP-100,2013-03-16 05:01:00,
2013-03-16 01:06:00,23.0,21.0,29.26,East,90,2.0,2.0,91,0.00,,,0.00,Rainwise IP-100,2013-03-16 05:06:00,
2013-03-16 01:11:00,23.3,21.0,29.26,East,90,2.0,2.0,90,0.00,,,0.00,Rainwise IP-100,2013-03-16 05:11:00,
2013-03-16 01:16:00,23.9,21.0,29.27,East,90,1.0,3.0,86,0.00,,,0.00,Rainwise IP-100,2013-03-16 05:16:00,
2013-03-16 01:21:00,24.3,21.0,29.27,North,360,0.0,2.0,86,0.00,,,0.00,Rainwise IP-100,2013-03-16 05:21:00,
2013-03-16 01:24:00,24.3,21.0,29.27,ESE,112,1.0,2.0,87,0.00,,,0.00,Rainwise IP-100,2013-03-16 05:24:00,
2013-03-16 01:29:00,24.5,23.0,29.27,ESE,112,0.0,2.0,88,0.00,,,0.00,Rainwise IP-100,2013-03-16 05:29:00,
2013-03-16 01:34:00,24.9,23.0,29.27,East,90,1.0,2.0,86,0.00,,,0.00,Rainwise IP-100,2013-03-16 05:34:00,
2013-03-16 01:39:00,24.9,23.0,29.28,East,90,0.0,2.0,87,0.00,,,0.00,Rainwise IP-100,2013-03-16 05:39:00,
2013-03-16 01:44:00,25.2,23.0,29.28,East,90,0.0,1.0,86,0.00,,,0.00,Rainwise IP-100,2013-03-16 05:44:00,
2013-03-16 01:49:00,25.6,23.0,29.28,East,90,2.0,2.0,83,0.00,,,0.00,Rainwise IP-100,2013-03-16 05:49:00,
2013-03-16 01:54:00,25.8,21.0,29.28,East,90,1.0,2.0,82,0.00,,,0.00,Rainwise IP-100,2013-03-16 05:54:00,
2013-03-16 01:59:00,25.8,23.0,29.28,East,90,0.0,2.0,85,0.00,,,0.00,Rainwise IP-100,2013-03-16 05:59:00,
2013-03-16 02:04:00,25.5,24.0,29.28,ESE,112,1.0,2.0,90,0.00,,,0.00,Rainwise IP-100,2013-03-16 06:04:00,
2013-03-16 02:09:00,25.8,23.0,29.28,ESE,112,2.0,2.0,85,0.00,,,0.00,Rainwise IP-100,2013-03-16 06:09:00,
2013-03-16 02:14:00,25.9,23.0,29.28,ESE,112,1.0,2.0,85,0.00,,,0.00,Rainwise IP-100,2013-03-16 06:14:00,
2013-03-16 02:19:00,26.1,23.0,29.28,North,360,0.0,2.0,83,0.00,,,0.00,Rainwise IP-100,2013-03-16 06:19:00,
2013-03-16 02:24:00,26.6,23.0,29.28,ESE,112,0.0,4.0,78,0.00,,,0.00,Rainwise IP-100,2013-03-16 06:24:00,
2013-03-16 02:29:00,26.7,24.0,29.27,SE,135,2.0,2.0,84,0.00,,,0.00,Rainwise IP-100,2013-03-16 06:29:00,
2013-03-16 02:34:00,26.6,23.0,29.28,East,90,1.0,2.0,81,0.00,,,0.00,Rainwise IP-100,2013-03-16 06:34:00,
2013-03-16 02:39:00,26.5,23.0,29.28,North,360,0.0,2.0,82,0.00,,,0.00,Rainwise IP-100,2013-03-16 06:39:00,
2013-03-16 02:44:00,26.4,23.0,29.28,ESE,112,1.0,2.0,83,0.00,,,0.00,Rainwise IP-100,2013-03-16 06:44:00,
2013-03-16 02:49:00,26.3,21.0,29.28,North,360,0.0,2.0,80,0.00,,,0.00,Rainwise IP-100,2013-03-16 06:49:00,
2013-03-16 02:54:00,26.3,21.0,29.28,ESE,112,0.0,2.0,80,0.00,,,0.00,Rainwise IP-100,2013-03-16 06:54:00,
2013-03-16 02:59:00,26.3,21.0,29.29,North,360,0.0,2.0,79,0.00,,,0.00,Rainwise IP-100,2013-03-16 06:59:00,
2013-03-16 03:04:00,26.2,21.0,29.29,North,360,2.0,2.0,79,0.00,,,0.00,Rainwise IP-100,2013-03-16 07:04:00,
2013-03-16 03:09:00,26.5,21.0,29.29,NNW,337,1.0,5.0,75,0.00,,,0.00,Rainwise IP-100,2013-03-16 07:09:00,
2013-03-16 03:14:00,26.7,21.0,29.29,East,90,2.0,4.0,73,0.00,,,0.00,Rainwise IP-100,2013-03-16 07:14:00,
2013-03-16 03:19:00,26.9,21.0,29.29,WNW,292,2.0,4.0,73,0.00,,,0.00,Rainwise IP-100,2013-03-16 07:19:00,
2013-03-16 03:24:00,27.0,21.0,29.29,NNW,337,2.0,7.0,71,0.00,,,0.00,Rainwise IP-100,2013-03-16 07:24:00,
2013-03-16 03:29:00,27.1,18.0,29.29,East,90,1.0,6.0,69,0.00,,,0.00,Rainwise IP-100,2013-03-16 07:29:00,
2013-03-16 03:34:00,26.9,21.0,29.29,East,90,0.0,7.0,70,0.00,,,0.00,Rainwise IP-100,2013-03-16 07:34:00,
2013-03-16 03:39:00,26.6,18.0,29.29,WNW,292,0.0,3.0,69,0.00,,,0.00,Rainwise IP-100,2013-03-16 07:39:00,
2013-03-16 03:44:00,26.4,18.0,29.29,SE,135,0.0,2.0,71,0.00,,,0.00,Rainwise IP-100,2013-03-16 07:44:00,
2013-03-16 03:49:00,26.3,18.0,29.30,East,90,0.0,4.0,72,0.00,,,0.00,Rainwise IP-100,2013-03-16 07:49:00,
2013-03-16 03:54:00,26.2,18.0,29.31,East,90,2.0,2.0,72,0.00,,,0.00,Rainwise IP-100,2013-03-16 07:54:00,
2013-03-16 03:59:00,26.3,18.0,29.31,North,360,0.0,4.0,72,0.00,,,0.00,Rainwise IP-100,2013-03-16 07:59:00,
2013-03-16 04:04:00,26.3,18.0,29.31,North,360,3.0,5.0,68,0.00,,,0.00,Rainwise IP-100,2013-03-16 08:04:00,
2013-03-16 04:09:00,26.3,16.0,29.31,NNW,337,2.0,11.0,65,0.00,,,0.00,Rainwise IP-100,2013-03-16 08:09:00,
2013-03-16 04:14:00,26.3,16.0,29.31,East,90,1.0,7.0,65,0.00,,,0.00,Rainwise IP-100,2013-03-16 08:14:00,
2013-03-16 04:19:00,26.3,16.0,29.31,West,270,1.0,12.0,65,0.00,,,0.00,Rainwise IP-100,2013-03-16 08:19:00,
2013-03-16 04:24:00,26.3,18.0,29.32,North,360,2.0,7.0,68,0.00,,,0.00,Rainwise IP-100,2013-03-16 08:24:00,
2013-03-16 04:29:00,26.3,18.0,29.32,North,360,6.0,8.0,69,0.00,,,0.00,Rainwise IP-100,2013-03-16 08:29:00,
2013-03-16 04:34:00,26.1,18.0,29.34,NW,315,3.0,9.0,69,0.00,,,0.00,Rainwise IP-100,2013-03-16 08:34:00,
2013-03-16 04:39:00,25.9,18.0,29.34,NW,315,1.0,9.0,69,0.00,,,0.00,Rainwise IP-100,2013-03-16 08:39:00,
2013-03-16 04:44:00,25.8,18.0,29.34,NNW,337,1.0,9.0,71,0.00,,,0.00,Rainwise IP-100,2013-03-16 08:44:00,
2013-03-16 04:49:00,25.5,18.0,29.34,NW,315,3.0,12.0,72,0.00,,,0.00,Rainwise IP-100,2013-03-16 08:49:00,
2013-03-16 04:54:00,25.2,18.0,29.35,NW,315,3.0,8.0,74,0.00,,,0.00,Rainwise IP-100,2013-03-16 08:54:00,
2013-03-16 04:59:00,24.8,21.0,29.35,North,360,1.0,9.0,75,0.00,,,0.00,Rainwise IP-100,2013-03-16 08:59:00,
2013-03-16 05:04:00,24.6,21.0,29.35,North,360,0.0,9.0,76,0.00,,,0.00,Rainwise IP-100,2013-03-16 09:04:00,
2013-03-16 05:09:00,24.4,18.0,29.35,North,360,2.0,4.0,77,0.00,,,0.00,Rainwise IP-100,2013-03-16 09:09:00,
2013-03-16 05:15:00,24.2,18.0,29.35,NNW,337,2.0,4.0,78,0.00,,,0.00,Rainwise IP-100,2013-03-16 09:15:00,
2013-03-16 05:20:00,24.1,18.0,29.36,East,90,4.0,6.0,78,0.00,,,0.00,Rainwise IP-100,2013-03-16 09:20:00,
2013-03-16 05:25:00,23.9,18.0,29.35,North,360,2.0,6.0,78,0.00,,,0.00,Rainwise IP-100,2013-03-16 09:25:00,
2013-03-16 05:30:00,23.9,18.0,29.36,NW,315,1.0,7.0,78,0.00,,,0.00,Rainwise IP-100,2013-03-16 09:30:00,
2013-03-16 05:35:00,23.7,18.0,29.36,East,90,2.0,5.0,79,0.00,,,0.00,Rainwise IP-100,2013-03-16 09:35:00,
2013-03-16 05:40:00,23.7,18.0,29.36,North,360,2.0,5.0,80,0.00,,,0.00,Rainwise IP-100,2013-03-16 09:40:00,
2013-03-16 05:45:00,23.6,18.0,29.36,NNW,337,1.0,7.0,80,0.00,,,0.00,Rainwise IP-100,2013-03-16 09:45:00,
2013-03-16 05:50:00,23.5,21.0,29.36,NNW,337,2.0,5.0,81,0.00,,,0.00,Rainwise IP-100,2013-03-16 09:50:00,
2013-03-16 05:55:00,23.4,18.0,29.36,WNW,292,1.0,6.0,82,0.00,,,0.00,Rainwise IP-100,2013-03-16 09:55:00,
2013-03-16 06:00:00,23.4,18.0,29.36,WSW,247,0.0,5.0,82,0.00,,,0.00,Rainwise IP-100,2013-03-16 10:00:00,
2013-03-16 06:05:00,23.3,18.0,29.37,ESE,112,1.0,7.0,82,0.00,,,0.00,Rainwise IP-100,2013-03-16 10:05:00,
2013-03-16 06:10:00,23.2,18.0,29.37,South,180,0.0,5.0,81,0.00,,,0.00,Rainwise IP-100,2013-03-16 10:10:00,
2013-03-16 06:15:00,23.1,18.0,29.38,NNW,337,2.0,4.0,82,0.00,,,0.00,Rainwise IP-100,2013-03-16 10:15:00,
2013-03-16 06:20:00,22.9,18.0,29.38,NNW,337,1.0,6.0,82,0.00,,,0.00,Rainwise IP-100,2013-03-16 10:20:00,
2013-03-16 06:25:00,22.9,18.0,29.38,SSW,202,2.0,6.0,81,0.00,,,0.00,Rainwise IP-100,2013-03-16 10:25:00,
2013-03-16 06:30:00,22.9,18.0,29.38,NNW,337,1.0,4.0,82,0.00,,,0.00,Rainwise IP-100,2013-03-16 10:30:00,
2013-03-16 06:35:00,22.9,18.0,29.38,North,360,0.0,4.0,84,0.00,,,0.00,Rainwise IP-100,2013-03-16 10:35:00,
2013-03-16 06:40:00,23.0,18.0,29.38,NNW,337,2.0,6.0,85,0.00,,,0.00,Rainwise IP-100,2013-03-16 10:40:00,
2013-03-16 06:45:00,22.9,18.0,29.39,NW,315,4.0,4.0,84,0.00,,,0.00,Rainwise IP-100,2013-03-16 10:45:00,
2013-03-16 06:50:00,22.9,18.0,29.39,NNW,337,2.0,9.0,86,0.00,,,0.00,Rainwise IP-100,2013-03-16 10:50:00,
2013-03-16 06:55:00,22.9,18.0,29.39,NW,315,0.0,5.0,85,0.00,,,0.00,Rainwise IP-100,2013-03-16 10:55:00,
2013-03-16 07:00:00,22.8,18.0,29.39,West,270,5.0,6.0,84,0.00,,,0.00,Rainwise IP-100,2013-03-16 11:00:00,
2013-03-16 07:05:00,22.9,18.0,29.40,North,360,1.0,6.0,84,0.00,,,0.00,Rainwise IP-100,2013-03-16 11:05:00,
2013-03-16 07:10:00,22.8,18.0,29.40,East,90,1.0,2.0,84,0.00,,,0.00,Rainwise IP-100,2013-03-16 11:10:00,
2013-03-16 07:15:00,22.8,18.0,29.40,SW,225,1.0,4.0,83,0.00,,,0.00,Rainwise IP-100,2013-03-16 11:15:00,
2013-03-16 07:20:00,22.8,18.0,29.40,East,90,0.0,6.0,84,0.00,,,0.00,Rainwise IP-100,2013-03-16 11:20:00,
2013-03-16 07:25:00,22.8,18.0,29.40,North,360,2.0,4.0,84,0.00,,,0.00,Rainwise IP-100,2013-03-16 11:25:00,
2013-03-16 07:30:00,22.9,18.0,29.40,WNW,292,2.0,5.0,84,0.00,,,0.00,Rainwise IP-100,2013-03-16 11:30:00,
2013-03-16 07:35:00,22.9,18.0,29.41,East,90,0.0,2.0,83,0.00,,,0.00,Rainwise IP-100,2013-03-16 11:35:00,
2013-03-16 07:40:00,22.9,18.0,29.41,WNW,292,2.0,9.0,82,0.00,,,0.00,Rainwise IP-100,2013-03-16 11:40:00,
2013-03-16 07:45:00,22.9,18.0,29.41,WNW,292,1.0,9.0,81,0.00,,,0.00,Rainwise IP-100,2013-03-16 11:45:00,
2013-03-16 07:50:00,23.0,18.0,29.41,SSW,202,4.0,6.0,82,0.00,,,0.00,Rainwise IP-100,2013-03-16 11:50:00,
2013-03-16 07:55:00,22.9,18.0,29.41,SSE,157,1.0,9.0,80,0.00,,,0.00,Rainwise IP-100,2013-03-16 11:55:00,
2013-03-16 08:00:00,23.1,18.0,29.41,North,360,2.0,7.0,81,0.00,,,0.00,Rainwise IP-100,2013-03-16 12:00:00,
2013-03-16 08:05:00,23.2,18.0,29.42,North,360,2.0,6.0,83,0.00,,,0.00,Rainwise IP-100,2013-03-16 12:05:00,
2013-03-16 08:10:00,23.4,18.0,29.42,West,270,2.0,6.0,81,0.00,,,0.00,Rainwise IP-100,2013-03-16 12:10:00,
2013-03-16 08:15:00,23.5,21.0,29.42,West,270,3.0,5.0,82,0.00,,,0.00,Rainwise IP-100,2013-03-16 12:15:00,
2013-03-16 08:20:00,23.7,21.0,29.42,WSW,247,2.0,4.0,83,0.00,,,0.00,Rainwise IP-100,2013-03-16 12:20:00,
2013-03-16 08:25:00,23.7,21.0,29.43,WNW,292,2.0,2.0,83,0.00,,,0.00,Rainwise IP-100,2013-03-16 12:25:00,
2013-03-16 08:30:00,23.7,21.0,29.42,SW,225,1.0,9.0,82,0.00,,,0.00,Rainwise IP-100,2013-03-16 12:30:00,
2013-03-16 08:35:00,23.6,18.0,29.43,ESE,112,2.0,6.0,79,0.00,,,0.00,Rainwise IP-100,2013-03-16 12:35:00,
2013-03-16 08:40:00,24.3,18.0,29.43,WNW,292,2.0,7.0,78,0.00,,,0.00,Rainwise IP-100,2013-03-16 12:40:00,
2013-03-16 08:45:00,24.8,21.0,29.43,NNW,337,4.0,7.0,77,0.00,,,0.00,Rainwise IP-100,2013-03-16 12:45:00,
2013-03-16 08:50:00,25.8,21.0,29.44,NNW,337,1.0,7.0,76,0.00,,,0.00,Rainwise IP-100,2013-03-16 12:50:00,
2013-03-16 08:55:00,25.9,18.0,29.44,SSE,157,1.0,5.0,74,0.00,,,0.00,Rainwise IP-100,2013-03-16 12:55:00,
2013-03-16 09:00:00,26.4,18.0,29.44,SW,225,2.0,7.0,71,0.00,,,0.00,Rainwise IP-100,2013-03-16 13:00:00,
2013-03-16 09:05:00,26.5,21.0,29.44,NNW,337,1.0,6.0,71,0.00,,,0.00,Rainwise IP-100,2013-03-16 13:05:00,
2013-03-16 09:10:00,26.8,21.0,29.45,NW,315,6.0,7.0,71,0.00,,,0.00,Rainwise IP-100,2013-03-16 13:10:00,
2013-03-16 09:15:00,26.8,21.0,29.45,NNW,337,1.0,7.0,71,0.00,,,0.00,Rainwise IP-100,2013-03-16 13:15:00,
2013-03-16 09:20:00,27.2,21.0,29.45,NW,315,2.0,4.0,71,0.00,,,0.00,Rainwise IP-100,2013-03-16 13:20:00,
2013-03-16 09:25:00,26.9,18.0,29.45,WSW,247,2.0,6.0,68,0.00,,,0.00,Rainwise IP-100,2013-03-16 13:25:00,
2013-03-16 09:30:00,27.4,18.0,29.45,WSW,247,2.0,4.0,68,0.00,,,0.00,Rainwise IP-100,2013-03-16 13:30:00,
2013-03-16 09:35:00,27.2,18.0,29.45,WSW,247,2.0,8.0,67,0.00,,,0.00,Rainwise IP-100,2013-03-16 13:35:00,
2013-03-16 09:40:00,27.3,18.0,29.45,SW,225,2.0,7.0,65,0.00,,,0.00,Rainwise IP-100,2013-03-16 13:40:00,
2013-03-16 09:45:00,27.1,18.0,29.45,West,270,2.0,5.0,65,0.00,,,0.00,Rainwise IP-100,2013-03-16 13:45:00,
2013-03-16 09:50:00,27.8,18.0,29.46,SW,225,2.0,7.0,66,0.00,,,0.00,Rainwise IP-100,2013-03-16 13:50:00,
2013-03-16 09:55:00,27.9,18.0,29.46,SW,225,2.0,6.0,66,0.00,,,0.00,Rainwise IP-100,2013-03-16 13:55:00,
2013-03-16 10:00:00,28.0,16.0,29.46,West,270,1.0,6.0,63,0.00,,,0.00,Rainwise IP-100,2013-03-16 14:00:00,
2013-03-16 10:05:00,28.1,16.0,29.46,SSW,202,2.0,5.0,62,0.00,,,0.00,Rainwise IP-100,2013-03-16 14:05:00,
2013-03-16 10:10:00,28.1,16.0,29.46,WNW,292,1.0,7.0,60,0.00,,,0.00,Rainwise IP-100,2013-03-16 14:10:00,
2013-03-16 10:15:00,28.9,16.0,29.46,North,360,1.0,4.0,58,0.00,,,0.00,Rainwise IP-100,2013-03-16 14:15:00,
2013-03-16 10:20:00,28.9,18.0,29.46,NW,315,4.0,4.0,62,0.00,,,0.00,Rainwise IP-100,2013-03-16 14:20:00,
2013-03-16 10:25:00,28.6,18.0,29.46,SW,225,2.0,5.0,63,0.00,,,0.00,Rainwise IP-100,2013-03-16 14:25:00,
2013-03-16 10:30:00,28.5,18.0,29.46,WSW,247,4.0,4.0,62,0.00,,,0.00,Rainwise IP-100,2013-03-16 14:30:00,
2013-03-16 10:35:00,29.1,18.0,29.46,WSW,247,2.0,7.0,64,0.00,,,0.00,Rainwise IP-100,2013-03-16 14:35:00,
2013-03-16 10:40:00,28.9,18.0,29.46,WSW,247,4.0,6.0,60,0.00,,,0.00,Rainwise IP-100,2013-03-16 14:40:00,
2013-03-16 10:45:00,28.7,18.0,29.46,WSW,247,2.0,6.0,61,0.00,,,0.00,Rainwise IP-100,2013-03-16 14:45:00,
2013-03-16 10:50:00,28.5,18.0,29.46,SW,225,2.0,5.0,62,0.00,,,0.00,Rainwise IP-100,2013-03-16 14:50:00,
2013-03-16 10:55:00,28.5,18.0,29.46,SSW,202,2.0,6.0,63,0.00,,,0.00,Rainwise IP-100,2013-03-16 14:55:00,
2013-03-16 11:00:00,29.3,18.0,29.46,SW,225,1.0,5.0,60,0.00,,,0.00,Rainwise IP-100,2013-03-16 15:00:00,
2013-03-16 11:05:00,29.5,18.0,29.45,SW,225,6.0,6.0,57,0.00,,,0.00,Rainwise IP-100,2013-03-16 15:05:00,
2013-03-16 11:10:00,29.1,16.0,29.46,WSW,247,2.0,6.0,58,0.00,,,0.00,Rainwise IP-100,2013-03-16 15:10:00,
2013-03-16 11:15:00,29.2,18.0,29.46,WSW,247,5.0,7.0,60,0.00,,,0.00,Rainwise IP-100,2013-03-16 15:15:00,
2013-03-16 11:20:00,29.5,18.0,29.46,SW,225,3.0,5.0,56,0.00,,,0.00,Rainwise IP-100,2013-03-16 15:20:00,
2013-03-16 11:25:00,30.7,16.0,29.46,WSW,247,3.0,5.0,54,0.00,,,0.00,Rainwise IP-100,2013-03-16 15:25:00,
2013-03-16 11:30:00,29.9,16.0,29.45,WSW,247,6.0,7.0,55,0.00,,,0.00,Rainwise IP-100,2013-03-16 15:30:00,
2013-03-16 11:35:00,29.9,16.0,29.45,WSW,247,4.0,7.0,53,0.00,,,0.00,Rainwise IP-100,2013-03-16 15:35:00,
2013-03-16 11:40:00,30.4,16.0,29.46,West,270,6.0,7.0,54,0.00,,,0.00,Rainwise IP-100,2013-03-16 15:40:00,
2013-03-16 11:45:00,31.2,16.0,29.46,SSE,157,1.0,7.0,52,0.00,,,0.00,Rainwise IP-100,2013-03-16 15:45:00,
2013-03-16 11:50:00,31.9,16.0,29.46,WNW,292,2.0,7.0,52,0.00,,,0.00,Rainwise IP-100,2013-03-16 15:50:00,
2013-03-16 11:56:00,30.6,16.0,29.46,WNW,292,3.0,6.0,52,0.00,,,0.00,Rainwise IP-100,2013-03-16 15:56:00,
2013-03-16 12:01:00,30.2,16.0,29.46,SW,225,2.0,6.0,55,0.00,,,0.00,Rainwise IP-100,2013-03-16 16:01:00,
2013-03-16 12:06:00,29.9,18.0,29.46,West,270,1.0,6.0,60,0.00,,,0.00,Rainwise IP-100,2013-03-16 16:06:00,
2013-03-16 12:11:00,29.8,16.0,29.46,WSW,247,4.0,7.0,52,0.00,,,0.00,Rainwise IP-100,2013-03-16 16:11:00,
2013-03-16 12:16:00,29.4,16.0,29.46,WSW,247,4.0,6.0,54,0.00,,,0.00,Rainwise IP-100,2013-03-16 16:16:00,
2013-03-16 12:21:00,29.1,16.0,29.46,WSW,247,2.0,7.0,54,0.00,,,0.00,Rainwise IP-100,2013-03-16 16:21:00,
2013-03-16 12:26:00,30.7,16.0,29.45,SW,225,2.0,6.0,52,0.00,,,0.00,Rainwise IP-100,2013-03-16 16:26:00,
2013-03-16 12:31:00,31.4,16.0,29.46,WSW,247,3.0,6.0,54,0.00,,,0.00,Rainwise IP-100,2013-03-16 16:31:00,
2013-03-16 12:36:00,31.1,16.0,29.46,WSW,247,4.0,6.0,51,0.00,,,0.00,Rainwise IP-100,2013-03-16 16:36:00,
2013-03-16 12:41:00,31.4,16.0,29.46,SSW,202,2.0,6.0,52,0.00,,,0.00,Rainwise IP-100,2013-03-16 16:41:00,
2013-03-16 12:46:00,32.2,16.0,29.46,SW,225,3.0,7.0,49,0.00,,,0.00,Rainwise IP-100,2013-03-16 16:46:00,
2013-03-16 12:51:00,31.5,16.0,29.46,WSW,247,3.0,6.0,51,0.00,,,0.00,Rainwise IP-100,2013-03-16 16:51:00,
2013-03-16 12:56:00,32.3,16.0,29.46,NNW,337,2.0,7.0,52,0.00,,,0.00,Rainwise IP-100,2013-03-16 16:56:00,
2013-03-16 13:01:00,32.9,18.0,29.46,WSW,247,4.0,6.0,50,0.00,,,0.00,Rainwise IP-100,2013-03-16 17:01:00,
2013-03-16 13:06:00,31.3,16.0,29.46,SW,225,3.0,6.0,54,0.00,,,0.00,Rainwise IP-100,2013-03-16 17:06:00,
2013-03-16 13:11:00,31.9,16.0,29.46,WSW,247,4.0,6.0,50,0.00,,,0.00,Rainwise IP-100,2013-03-16 17:11:00,
2013-03-16 13:16:00,32.1,16.0,29.45,West,270,5.0,7.0,51,0.00,,,0.00,Rainwise IP-100,2013-03-16 17:16:00,
2013-03-16 13:21:00,32.4,16.0,29.45,SW,225,3.0,7.0,48,0.00,,,0.00,Rainwise IP-100,2013-03-16 17:21:00,
2013-03-16 13:26:00,32.9,18.0,29.46,West,270,3.0,6.0,52,0.00,,,0.00,Rainwise IP-100,2013-03-16 17:26:00,
2013-03-16 13:31:00,32.2,18.0,29.46,North,360,1.0,7.0,57,0.00,,,0.00,Rainwise IP-100,2013-03-16 17:31:00,
2013-03-16 13:36:00,31.9,16.0,29.46,West,270,5.0,7.0,50,0.00,,,0.00,Rainwise IP-100,2013-03-16 17:36:00,
2013-03-16 13:41:00,31.9,16.0,29.46,WSW,247,6.0,7.0,52,0.00,,,0.00,Rainwise IP-100,2013-03-16 17:41:00,
2013-03-16 13:46:00,31.8,16.0,29.45,WSW,247,6.0,7.0,49,0.00,,,0.00,Rainwise IP-100,2013-03-16 17:46:00,
2013-03-16 13:51:00,32.3,16.0,29.46,West,270,4.0,9.0,50,0.00,,,0.00,Rainwise IP-100,2013-03-16 17:51:00,
2013-03-16 13:56:00,32.9,16.0,29.46,WSW,247,4.0,7.0,46,0.00,,,0.00,Rainwise IP-100,2013-03-16 17:56:00,
2013-03-16 14:01:00,32.1,16.0,29.46,WSW,247,4.0,6.0,49,0.00,,,0.00,Rainwise IP-100,2013-03-16 18:01:00,
2013-03-16 14:06:00,31.2,16.0,29.45,WNW,292,1.0,6.0,51,0.00,,,0.00,Rainwise IP-100,2013-03-16 18:06:00,
2013-03-16 14:11:00,31.4,16.0,29.45,WSW,247,6.0,6.0,52,0.00,,,0.00,Rainwise IP-100,2013-03-16 18:11:00,
2013-03-16 14:16:00,31.4,16.0,29.45,West,270,3.0,7.0,50,0.00,,,0.00,Rainwise IP-100,2013-03-16 18:16:00,
2013-03-16 14:21:00,31.9,16.0,29.45,West,270,4.0,7.0,50,0.00,,,0.00,Rainwise IP-100,2013-03-16 18:21:00,
2013-03-16 14:26:00,32.3,16.0,29.45,WSW,247,3.0,6.0,49,0.00,,,0.00,Rainwise IP-100,2013-03-16 18:26:00,
2013-03-16 14:31:00,32.0,16.0,29.45,WSW,247,5.0,8.0,48,0.00,,,0.00,Rainwise IP-100,2013-03-16 18:31:00,
2013-03-16 14:36:00,31.9,14.0,29.45,WSW,247,2.0,7.0,47,0.00,,,0.00,Rainwise IP-100,2013-03-16 18:36:00,
2013-03-16 14:41:00,32.1,16.0,29.45,West,270,4.0,5.0,48,0.00,,,0.00,Rainwise IP-100,2013-03-16 18:41:00,
2013-03-16 14:46:00,31.7,16.0,29.45,NNW,337,3.0,6.0,51,0.00,,,0.00,Rainwise IP-100,2013-03-16 18:46:00,
2013-03-16 14:51:00,32.7,16.0,29.45,SW,225,2.0,6.0,47,0.00,,,0.00,Rainwise IP-100,2013-03-16 18:51:00,
2013-03-16 14:56:00,33.3,14.0,29.45,WSW,247,4.0,6.0,44,0.00,,,0.00,Rainwise IP-100,2013-03-16 18:56:00,
2013-03-16 15:01:00,32.7,16.0,29.45,West,270,4.0,6.0,45,0.00,,,0.00,Rainwise IP-100,2013-03-16 19:01:00,
2013-03-16 15:06:00,32.7,16.0,29.45,WSW,247,6.0,7.0,46,0.00,,,0.00,Rainwise IP-100,2013-03-16 19:06:00,
2013-03-16 15:11:00,32.0,16.0,29.45,West,270,6.0,6.0,48,0.00,,,0.00,Rainwise IP-100,2013-03-16 19:11:00,
2013-03-16 15:16:00,32.0,14.0,29.45,West,270,1.0,6.0,44,0.00,,,0.00,Rainwise IP-100,2013-03-16 19:16:00,
2013-03-16 15:21:00,32.7,16.0,29.45,WSW,247,6.0,7.0,47,0.00,,,0.00,Rainwise IP-100,2013-03-16 19:21:00,
2013-03-16 15:26:00,32.9,16.0,29.45,WSW,247,4.0,10.0,45,0.00,,,0.00,Rainwise IP-100,2013-03-16 19:26:00,
2013-03-16 15:31:00,33.1,16.0,29.45,WSW,247,8.0,9.0,46,0.00,,,0.00,Rainwise IP-100,2013-03-16 19:31:00,
2013-03-16 15:36:00,32.9,16.0,29.45,WSW,247,2.0,9.0,47,0.00,,,0.00,Rainwise IP-100,2013-03-16 19:36:00,
2013-03-16 15:41:00,33.2,14.0,29.45,WSW,247,4.0,7.0,44,0.00,,,0.00,Rainwise IP-100,2013-03-16 19:41:00,
2013-03-16 15:46:00,32.7,16.0,29.45,WSW,247,4.0,7.0,46,0.00,,,0.00,Rainwise IP-100,2013-03-16 19:46:00,
2013-03-16 15:51:00,32.3,14.0,29.45,West,270,3.0,9.0,44,0.00,,,0.00,Rainwise IP-100,2013-03-16 19:51:00,
2013-03-16 15:56:00,33.2,16.0,29.45,WSW,247,3.0,6.0,45,0.00,,,0.00,Rainwise IP-100,2013-03-16 19:56:00,
2013-03-16 16:01:00,33.8,16.0,29.45,West,270,4.0,6.0,45,0.00,,,0.00,Rainwise IP-100,2013-03-16 20:01:00,
2013-03-16 16:06:00,34.1,14.0,29.45,West,270,4.0,6.0,41,0.00,,,0.00,Rainwise IP-100,2013-03-16 20:06:00,
2013-03-16 16:11:00,34.1,16.0,29.46,West,270,4.0,8.0,43,0.00,,,0.00,Rainwise IP-100,2013-03-16 20:11:00,
2013-03-16 16:16:00,34.3,16.0,29.46,West,270,1.0,6.0,43,0.00,,,0.00,Rainwise IP-100,2013-03-16 20:16:00,
2013-03-16 16:21:00,34.3,16.0,29.46,WSW,247,7.0,7.0,44,0.00,,,0.00,Rainwise IP-100,2013-03-16 20:21:00,
2013-03-16 16:26:00,34.0,16.0,29.46,West,270,4.0,8.0,43,0.00,,,0.00,Rainwise IP-100,2013-03-16 20:26:00,
2013-03-16 16:31:00,34.2,16.0,29.46,WSW,247,2.0,7.0,43,0.00,,,0.00,Rainwise IP-100,2013-03-16 20:31:00,
2013-03-16 16:36:00,34.3,14.0,29.46,WSW,247,4.0,6.0,41,0.00,,,0.00,Rainwise IP-100,2013-03-16 20:36:00,
2013-03-16 16:41:00,34.3,16.0,29.46,WSW,247,3.0,6.0,44,0.00,,,0.00,Rainwise IP-100,2013-03-16 20:41:00,
2013-03-16 16:46:00,33.5,16.0,29.47,WSW,247,5.0,8.0,44,0.00,,,0.00,Rainwise IP-100,2013-03-16 20:46:00,
2013-03-16 16:51:00,33.9,14.0,29.46,WSW,247,5.0,9.0,41,0.00,,,0.00,Rainwise IP-100,2013-03-16 20:51:00,
2013-03-16 16:56:00,33.9,16.0,29.47,NNW,337,4.0,7.0,44,0.00,,,0.00,Rainwise IP-100,2013-03-16 20:56:00,
2013-03-16 17:01:00,33.9,16.0,29.47,SW,225,6.0,8.0,44,0.00,,,0.00,Rainwise IP-100,2013-03-16 21:01:00,
2013-03-16 17:06:00,33.3,14.0,29.47,WSW,247,4.0,7.0,42,0.00,,,0.00,Rainwise IP-100,2013-03-16 21:06:00,
2013-03-16 17:11:00,33.7,16.0,29.47,WSW,247,3.0,6.0,44,0.00,,,0.00,Rainwise IP-100,2013-03-16 21:11:00,
2013-03-16 17:16:00,34.0,14.0,29.46,West,270,2.0,6.0,42,0.00,,,0.00,Rainwise IP-100,2013-03-16 21:16:00,
2013-03-16 17:21:00,34.1,14.0,29.46,West,270,2.0,6.0,42,0.00,,,0.00,Rainwise IP-100,2013-03-16 21:21:00,
2013-03-16 17:26:00,34.4,16.0,29.47,WSW,247,5.0,5.0,44,0.00,,,0.00,Rainwise IP-100,2013-03-16 21:26:00,
2013-03-16 17:31:00,34.4,14.0,29.47,SW,225,2.0,7.0,41,0.00,,,0.00,Rainwise IP-100,2013-03-16 21:31:00,
2013-03-16 17:37:00,34.3,16.0,29.47,WSW,247,1.0,9.0,44,0.00,,,0.00,Rainwise IP-100,2013-03-16 21:37:00,
2013-03-16 17:42:00,33.9,14.0,29.47,WSW,247,6.0,7.0,41,0.00,,,0.00,Rainwise IP-100,2013-03-16 21:42:00,
2013-03-16 17:47:00,34.2,14.0,29.47,West,270,2.0,6.0,41,0.00,,,0.00,Rainwise IP-100,2013-03-16 21:47:00,
2013-03-16 17:52:00,33.9,16.0,29.47,West,270,4.0,5.0,44,0.00,,,0.00,Rainwise IP-100,2013-03-16 21:52:00,
2013-03-16 17:57:00,33.3,14.0,29.47,WSW,247,3.0,5.0,44,0.00,,,0.00,Rainwise IP-100,2013-03-16 21:57:00,
2013-03-16 18:02:00,33.4,16.0,29.46,WSW,247,2.0,4.0,45,0.00,,,0.00,Rainwise IP-100,2013-03-16 22:02:00,
2013-03-16 18:07:00,33.3,14.0,29.46,SW,225,1.0,4.0,44,0.00,,,0.00,Rainwise IP-100,2013-03-16 22:07:00,
2013-03-16 18:12:00,32.7,16.0,29.46,WSW,247,2.0,5.0,45,0.00,,,0.00,Rainwise IP-100,2013-03-16 22:12:00,
2013-03-16 18:17:00,32.4,14.0,29.46,West,270,1.0,4.0,47,0.00,,,0.00,Rainwise IP-100,2013-03-16 22:17:00,
2013-03-16 18:22:00,32.0,14.0,29.46,WSW,247,3.0,4.0,46,0.00,,,0.00,Rainwise IP-100,2013-03-16 22:22:00,
2013-03-16 18:27:00,31.7,14.0,29.45,WSW,247,2.0,5.0,45,0.00,,,0.00,Rainwise IP-100,2013-03-16 22:27:00,
2013-03-16 18:32:00,31.6,16.0,29.45,West,270,2.0,4.0,48,0.00,,,0.00,Rainwise IP-100,2013-03-16 22:32:00,
2013-03-16 18:37:00,31.4,14.0,29.45,NW,315,1.0,6.0,49,0.00,,,0.00,Rainwise IP-100,2013-03-16 22:37:00,
2013-03-16 18:42:00,30.9,16.0,29.45,East,90,0.0,2.0,52,0.00,,,0.00,Rainwise IP-100,2013-03-16 22:42:00,
2013-03-16 18:47:00,30.2,16.0,29.45,South,180,0.0,3.0,50,0.00,,,0.00,Rainwise IP-100,2013-03-16 22:47:00,
2013-03-16 18:52:00,29.7,16.0,29.45,SSW,202,0.0,2.0,51,0.00,,,0.00,Rainwise IP-100,2013-03-16 22:52:00,
2013-03-16 18:57:00,29.3,16.0,29.45,West,270,0.0,2.0,58,0.00,,,0.00,Rainwise IP-100,2013-03-16 22:57:00,
2013-03-16 19:02:00,28.9,16.0,29.44,West,270,0.0,0.0,54,0.00,,,0.00,Rainwise IP-100,2013-03-16 23:02:00,
2013-03-16 19:07:00,28.2,16.0,29.45,West,270,2.0,2.0,58,0.00,,,0.00,Rainwise IP-100,2013-03-16 23:07:00,
2013-03-16 19:12:00,29.1,16.0,29.45,WSW,247,2.0,4.0,57,0.00,,,0.00,Rainwise IP-100,2013-03-16 23:12:00,
2013-03-16 19:17:00,30.1,16.0,29.45,WSW,247,4.0,4.0,55,0.00,,,0.00,Rainwise IP-100,2013-03-16 23:17:00,
2013-03-16 19:22:00,30.5,16.0,29.45,West,270,1.0,4.0,53,0.00,,,0.00,Rainwise IP-100,2013-03-16 23:22:00,
2013-03-16 19:27:00,29.9,18.0,29.46,NW,315,0.0,2.0,59,0.00,,,0.00,Rainwise IP-100,2013-03-16 23:27:00,
2013-03-16 19:32:00,29.5,16.0,29.46,North,360,1.0,4.0,52,0.00,,,0.00,Rainwise IP-100,2013-03-16 23:32:00,
2013-03-16 19:37:00,29.4,14.0,29.47,North,360,1.0,4.0,51,0.00,,,0.00,Rainwise IP-100,2013-03-16 23:37:00,
2013-03-16 19:42:00,29.2,14.0,29.47,ESE,112,2.0,2.0,52,0.00,,,0.00,Rainwise IP-100,2013-03-16 23:42:00,
2013-03-16 19:50:00,28.7,16.0,29.46,East,90,1.0,2.0,57,0.00,,,0.00,Rainwise IP-100,2013-03-16 23:50:00,
2013-03-16 19:55:00,28.4,14.0,29.46,North,360,1.0,4.0,53,0.00,,,0.00,Rainwise IP-100,2013-03-16 23:55:00,
2013-03-16 20:00:00,28.2,14.0,29.46,ESE,112,2.0,2.0,54,0.00,,,0.00,Rainwise IP-100,2013-03-17 00:00:00,
2013-03-16 20:05:00,28.0,14.0,29.46,ESE,112,1.0,2.0,54,0.00,,,0.00,Rainwise IP-100,2013-03-17 00:05:00,
2013-03-16 20:10:00,27.9,14.0,29.46,North,360,0.0,1.0,54,0.00,,,0.00,Rainwise IP-100,2013-03-17 00:10:00,
2013-03-16 20:15:00,27.9,14.0,29.47,NNW,337,0.0,2.0,56,0.00,,,0.00,Rainwise IP-100,2013-03-17 00:15:00,
2013-03-16 20:20:00,28.2,14.0,29.47,South,180,1.0,2.0,55,0.00,,,0.00,Rainwise IP-100,2013-03-17 00:20:00,
2013-03-16 20:38:00,28.9,14.0,29.48,SSW,202,0.0,0.0,49,0.00,,,0.00,Rainwise IP-100,2013-03-17 00:38:00,
2013-03-16 20:43:00,28.9,14.0,29.48,WSW,247,6.0,6.0,48,0.00,,,0.00,Rainwise IP-100,2013-03-17 00:43:00,
2013-03-16 20:48:00,28.9,14.0,29.48,NW,315,2.0,6.0,49,0.00,,,0.00,Rainwise IP-100,2013-03-17 00:48:00,
2013-03-16 20:53:00,28.8,14.0,29.48,WNW,292,1.0,4.0,52,0.00,,,0.00,Rainwise IP-100,2013-03-17 00:53:00,
2013-03-16 20:58:00,28.7,14.0,29.48,SW,225,1.0,4.0,52,0.00,,,0.00,Rainwise IP-100,2013-03-17 00:58:00,
2013-03-16 21:03:00,28.6,14.0,29.49,SSW,202,0.0,6.0,52,0.00,,,0.00,Rainwise IP-100,2013-03-17 01:03:00,
2013-03-16 21:08:00,28.6,14.0,29.49,North,360,1.0,4.0,52,0.00,,,0.00,Rainwise IP-100,2013-03-17 01:08:00,
2013-03-16 21:13:00,28.7,14.0,29.49,NNW,337,2.0,4.0,51,0.00,,,0.00,Rainwise IP-100,2013-03-17 01:13:00,
2013-03-16 21:18:00,28.7,14.0,29.49,SW,225,2.0,5.0,51,0.00,,,0.00,Rainwise IP-100,2013-03-17 01:18:00,
2013-03-16 21:23:00,28.7,14.0,29.49,SSW,202,0.0,4.0,53,0.00,,,0.00,Rainwise IP-100,2013-03-17 01:23:00,
2013-03-16 21:28:00,28.7,16.0,29.49,West,270,1.0,3.0,55,0.00,,,0.00,Rainwise IP-100,2013-03-17 01:28:00,
2013-03-16 21:33:00,28.5,14.0,29.50,East,90,1.0,4.0,51,0.00,,,0.00,Rainwise IP-100,2013-03-17 01:33:00,
2013-03-16 21:38:00,28.4,14.0,29.50,WNW,292,2.0,4.0,55,0.00,,,0.00,Rainwise IP-100,2013-03-17 01:38:00,
2013-03-16 21:43:00,28.4,14.0,29.50,NW,315,0.0,6.0,53,0.00,,,0.00,Rainwise IP-100,2013-03-17 01:43:00,
2013-03-16 21:48:00,28.3,14.0,29.50,North,360,0.0,5.0,53,0.00,,,0.00,Rainwise IP-100,2013-03-17 01:48:00,
2013-03-16 21:53:00,28.3,14.0,29.50,North,360,1.0,2.0,56,0.00,,,0.00,Rainwise IP-100,2013-03-17 01:53:00,
2013-03-16 21:58:00,28.3,14.0,29.50,NNW,337,0.0,5.0,51,0.00,,,0.00,Rainwise IP-100,2013-03-17 01:58:00,
2013-03-16 22:03:00,28.2,14.0,29.50,WSW,247,1.0,4.0,53,0.00,,,0.00,Rainwise IP-100,2013-03-17 02:03:00,
2013-03-16 22:08:00,28.2,14.0,29.51,West,270,3.0,4.0,53,0.00,,,0.00,Rainwise IP-100,2013-03-17 02:08:00,
2013-03-16 22:13:00,28.3,14.0,29.51,SSW,202,2.0,4.0,54,0.00,,,0.00,Rainwise IP-100,2013-03-17 02:13:00,
2013-03-16 22:18:00,28.2,14.0,29.51,NW,315,4.0,6.0,54,0.00,,,0.00,Rainwise IP-100,2013-03-17 02:18:00,
2013-03-16 22:23:00,28.1,14.0,29.51,SSW,202,1.0,5.0,51,0.00,,,0.00,Rainwise IP-100,2013-03-17 02:23:00,
2013-03-16 22:28:00,27.9,14.0,29.52,West,270,1.0,3.0,53,0.00,,,0.00,Rainwise IP-100,2013-03-17 02:28:00,
2013-03-16 22:33:00,27.9,14.0,29.52,SSW,202,1.0,6.0,52,0.00,,,0.00,Rainwise IP-100,2013-03-17 02:33:00,
2013-03-16 22:38:00,27.9,14.0,29.52,SW,225,2.0,5.0,52,0.00,,,0.00,Rainwise IP-100,2013-03-17 02:38:00,
2013-03-16 22:43:00,27.8,14.0,29.52,North,360,1.0,5.0,54,0.00,,,0.00,Rainwise IP-100,2013-03-17 02:43:00,
2013-03-16 22:48:00,27.8,14.0,29.52,WSW,247,2.0,9.0,53,0.00,,,0.00,Rainwise IP-100,2013-03-17 02:48:00,
2013-03-16 22:53:00,27.7,14.0,29.52,WSW,247,2.0,2.0,52,0.00,,,0.00,Rainwise IP-100,2013-03-17 02:53:00,
2013-03-16 22:58:00,27.7,14.0,29.53,East,90,0.0,3.0,55,0.00,,,0.00,Rainwise IP-100,2013-03-17 02:58:00,
2013-03-16 23:03:00,27.6,14.0,29.53,WSW,247,2.0,7.0,52,0.00,,,0.00,Rainwise IP-100,2013-03-17 03:03:00,
2013-03-16 23:08:00,27.4,14.0,29.53,SW,225,1.0,7.0,53,0.00,,,0.00,Rainwise IP-100,2013-03-17 03:08:00,
2013-03-16 23:13:00,27.4,14.0,29.54,West,270,1.0,5.0,55,0.00,,,0.00,Rainwise IP-100,2013-03-17 03:13:00,
2013-03-16 23:18:00,27.5,14.0,29.54,WNW,292,1.0,5.0,54,0.00,,,0.00,Rainwise IP-100,2013-03-17 03:18:00,
2013-03-16 23:23:00,27.3,14.0,29.54,East,90,4.0,7.0,53,0.00,,,0.00,Rainwise IP-100,2013-03-17 03:23:00,
2013-03-16 23:28:00,27.2,14.0,29.54,WSW,247,2.0,6.0,54,0.00,,,0.00,Rainwise IP-100,2013-03-17 03:28:00,
2013-03-16 23:33:00,27.2,14.0,29.54,NNW,337,3.0,4.0,54,0.00,,,0.00,Rainwise IP-100,2013-03-17 03:33:00,
2013-03-16 23:38:00,27.1,14.0,29.54,WSW,247,1.0,6.0,53,0.00,,,0.00,Rainwise IP-100,2013-03-17 03:38:00,
2013-03-16 23:43:00,26.9,14.0,29.54,WNW,292,2.0,5.0,55,0.00,,,0.00,Rainwise IP-100,2013-03-17 03:43:00,
2013-03-16 23:48:00,26.9,14.0,29.54,WSW,247,2.0,5.0,54,0.00,,,0.00,Rainwise IP-100,2013-03-17 03:48:00,
2013-03-16 23:53:00,26.7,14.0,29.54,NNW,337,2.0,2.0,55,0.00,,,0.00,Rainwise IP-100,2013-03-17 03:53:00,
2013-03-16 23:58:00,26.5,14.0,29.54,NNW,337,1.0,3.0,54,0.00,,,0.00,Rainwise IP-100,2013-03-17 03:58:00,